Theta_e
371 363 365 363 360 356 359 358 358 365 364 361 361 363 360 358 358 359 356 356 356 353
368 366 364 366 366 360 365 361 365 364 368 365 361 359 359 356 354 355 356 356 355 355
366 366 367 366 366 367 366 367 367 367 365 366 361 360 356 355 354 353 354 354 353 353
359 359 365 363 366 366 367 370 367 367 368 366 363 361 357 355 353 353 352 353 351 352
355 355 356 357 360 363 366 370 366 362 359 364 364 365 363 360 360 354 350 351 351 350
347 347 346 347 349 353 356 357 357 358 356 356 359 360 361 362 358 358 357 356 353 351
344 344 344 346 347 348 350 352 355 351 349 354 354 354 355 355 356 357 353 355 357 356
343 342 342 341 340 342 343 344 346 347 350 350 347 347 349 352 351 352 350 352 355 353
335 335 335 335 335 336 336 338 340 341 343 343 344 341 341 341 347 349 347 347 350 353
331 330 330 331 331 330 329 331 331 332 335 338 342 337 336 339 341 344 344 346 348 347
328 328 329 328 327 326 326 325 325 325 328 329 332 331 331 334 340 342 342 343 344 344
323 322 323 323 325 326 325 324 322 322 323 321 324 325 326 330 337 339 339 341 343 343
323 324 324 324 322 323 323 321 321 320 320 320 321 324 324 327 335 334 335 337 339 335
322 321 320 321 322 321 320 318 318 318 318 320 322 325 322 321 330 332 332 334 334 337
Wind_Speed
4 4 4 4 5 5 5 3 7 6 6 9 10 8 9 7 7 8 8 11 8 7
2 4 4 5 5 5 5 6 5 4 4 6 9 10 10 9 11 10 8 7 8 8
2 3 2 4 5 4 5 5 6 5 6 7 8 9 10 10 10 9 9 8 9 7
2 5 3 5 4 5 6 6 5 6 5 6 7 7 6 8 11 10 10 10 10 10
9 10 11 10 9 7 5 3 4 6 7 6 6 6 6 7 7 8 8 10 10 11
10 11 12 13 12 12 10 10 10 9 7 7 7 6 6 7 6 7 7 7 8 9
9 10 10 11 12 13 13 12 8 10 11 9 9 9 8 8 8 7 7 6 5 6
12 12 12 12 12 13 13 12 12 12 10 11 11 11 10 9 9 6 7 8 6 7
10 10 10 11 12 11 12 12 13 12 12 12 10 15 16 10 8 7 7 6 6 6
9 10 10 10 10 11 13 14 14 14 14 14 14 12 14 15 10 10 9 7 6 6
9 10 11 12 11 11 11 11 13 14 15 15 13 16 18 14 9 9 11 10 9 9
9 9 10 10 9 10 10 10 11 10 13 16 16 20 20 16 10 9 10 10 12 12
8 9 10 10 10 9 10 11 11 13 11 15 15 20 17 16 8 9 8 11 12 16
9 8 9 9 8 9 9 11 11 12 12 15 11 16 11 10 7 7 8 8 9 5
Wind_Direction
331 301 237 251 353 326 329 285 288 194 213 236 239 228 235 238 238 230 227 229 221 249
251 249 294 320 319 288 322 338 357 309 265 254 252 245 241 242 242 234 231 232 234 228
227 204 241 247 245 253 264 276 287 279 273 280 274 262 250 259 249 248 243 232 232 232
287 271 231 256 261 236 249 247 267 284 258 274 283 279 280 259 266 241 251 251 236 231
7 5 357 344 340 310 272 312 292 269 263 236 236 246 254 264 274 282 271 254 258 256
354 359 348 347 345 340 343 341 336 345 332 321 291 264 241 237 256 253 245 247 258 263
4 350 342 335 334 341 342 337 324 316 310 313 304 291 268 246 223 242 257 257 268 239
12 2 356 355 345 344 337 333 331 327 318 310 297 285 270 257 254 227 259 265 242 262
360 344 339 335 332 331 329 332 333 326 319 312 303 308 315 304 303 264 249 253 257 250
350 337 326 322 326 335 336 333 329 322 320 316 309 294 298 308 301 295 278 270 257 257
337 337 346 344 341 340 332 334 326 319 317 316 310 321 310 302 299 299 288 277 278 256
349 330 319 313 329 335 332 322 316 310 316 315 306 307 302 300 296 298 300 278 265 255
318 329 336 338 335 333 331 326 326 319 308 298 299 300 296 295 293 295 289 289 281 261
338 321 329 327 330 333 336 326 323 319 317 311 293 316 321 330 333 308 302 285 281 274